Weather History for Orr, MN

Change the Weather History Date:

Thursday, February 21, 2013

  Actual Average Record
Temperature  
Mean Temperature 3 °F -  
Max Temperature 24 °F 24 °F 48 °F (2000)
Min Temperature -18 °F 5 °F -27 °F (2001)
Degree Days  
Heating Degree Days 62    
Moisture  
Dew Point -10 °F    
Average Humidity 52    
Maximum Humidity 84    
Minimum Humidity 17    
Precipitation  
Precipitation 0.00 in - - ()
Sea Level Pressure  
Sea Level Pressure 30.34 in    
Wind  
Wind Speed 1 mph (ESE)    
Max Wind Speed 8 mph    
Max Gust Speed -    
Visibility 10 miles    
Events      
Averages and records for this station are not official NWS values.
T = Trace of Precipitation, MM = Missing Value Source: NWS Daily Summary

Daily Weather History Graph

Daily Weather History Graph

Search for Another Location

Airport:

Trip Planner

Search our weather history database for the weather conditions in past years. The results will help you decide how hot, cold, wet, or windy it might be!

Date:

Astronomy

Feb. 21, 2013 Rise Set
Actual Time 7:06 AM CST 5:43 PM CST
Civil Twilight 6:35 AM CST 6:15 PM CST
Nautical Twilight 5:59 AM CST 6:51 PM CST
Astronomical Twilight 5:23 AM CST 7:27 PM CST
Moon 1:47 PM CST (2/21) 4:24 AM CST (2/21)
Length of Visible Light 11h 40m
Length of Day
10h 37m
Waxing Gibbous, 84% of the Moon is Illuminated
Feb 21
Waxing Gibbous
Feb 25
Full
Mar 4
Last Quarter
Mar 11
New
Mar 19
First Quarter

Hourly Weather History & Observations

Time (CST) Temp. Windchill Dew Point Humidity Pressure Visibility Wind Dir Wind Speed Gust Speed Precip Events Conditions
12:13 AM -2.2 °F -10.4 °F -13.0 °F 60% 30.38 in 10.0 mi East 3.5 mph - N/A   Clear
12:33 AM -2.2 °F -12.5 °F -13.0 °F 60% 30.38 in 10.0 mi East 4.6 mph - N/A   Clear
12:53 AM -2.2 °F - -13.0 °F 60% 30.39 in 10.0 mi Calm Calm - N/A   Clear
1:13 AM -2.2 °F - -13.0 °F 60% 30.40 in 10.0 mi Calm Calm - N/A   Clear
1:33 AM -4.0 °F - -13.0 °F 65% 30.41 in 10.0 mi Calm Calm - N/A   Clear
1:54 AM -5.8 °F - -14.8 °F 65% 30.41 in 10.0 mi Calm Calm - N/A   Clear
2:13 AM -4.0 °F - -13.0 °F 65% 30.41 in 10.0 mi Calm Calm - N/A   Clear
2:33 AM -5.8 °F - -14.8 °F 65% 30.41 in 10.0 mi Calm Calm - N/A   Clear
2:53 AM -5.8 °F -16.7 °F -14.8 °F 65% 30.41 in 10.0 mi East 4.6 mph - N/A   Clear
3:13 AM -5.8 °F - -14.8 °F 65% 30.41 in 10.0 mi Calm Calm - N/A   Clear
3:33 AM -9.4 °F - -16.6 °F 71% 30.41 in 10.0 mi Calm Calm - N/A   Clear
3:53 AM -11.2 °F - -18.4 °F 70% 30.41 in 10.0 mi Calm Calm - N/A   Clear
4:13 AM -9.4 °F - -14.8 °F 77% 30.41 in 10.0 mi Calm Calm - N/A   Clear
4:33 AM -9.4 °F - -16.6 °F 71% 30.42 in 10.0 mi Calm Calm - N/A   Clear
4:53 AM -9.4 °F - -16.6 °F 71% 30.43 in 10.0 mi Calm Calm - N/A   Clear
5:13 AM -16.6 °F - -23.8 °F 70% 30.44 in 10.0 mi Calm Calm - N/A   Clear
5:53 AM -16.6 °F - -22.0 °F 76% 30.44 in 10.0 mi Calm Calm - N/A   Clear
6:13 AM -14.8 °F - -18.4 °F 84% 30.43 in 10.0 mi Calm Calm - N/A   Clear
6:33 AM -18.4 °F - -23.8 °F 76% 30.43 in 10.0 mi Calm Calm - N/A   Clear
6:53 AM -18.4 °F - -23.8 °F 76% 30.42 in 10.0 mi Calm Calm - N/A   Clear
7:13 AM -16.6 °F - -23.8 °F 70% 30.41 in 10.0 mi Calm Calm - N/A   Clear
7:33 AM -16.6 °F - -22.0 °F 76% 30.40 in 10.0 mi Calm Calm - N/A   Clear
8:13 AM -11.2 °F - -16.6 °F 77% 30.37 in 10.0 mi Calm Calm - N/A   Clear
8:34 AM -5.8 °F - -14.8 °F 65% 30.36 in 10.0 mi Calm Calm - N/A   Clear
8:54 AM -2.2 °F - -14.8 °F 55% 30.36 in 10.0 mi Calm Calm - N/A   Clear
9:13 AM 1.4 °F - -13.0 °F 51% 30.39 in 10.0 mi Calm Calm - N/A   Clear
9:33 AM 3.2 °F - -11.2 °F 51% 30.43 in 10.0 mi Calm Calm - N/A   Clear
9:53 AM 8.6 °F 0.1 °F -9.4 °F 44% 30.44 in 10.0 mi SSE 4.6 mph - N/A   Clear
10:13 AM 8.6 °F - -9.4 °F 44% 30.42 in 10.0 mi Calm Calm - N/A   Clear
10:33 AM 10.4 °F - -9.4 °F 41% 30.43 in 10.0 mi Calm Calm - N/A   Clear
10:53 AM 14.0 °F - -9.4 °F 35% 30.41 in 10.0 mi Calm Calm - N/A   Clear
11:13 AM 12.2 °F - -7.6 °F 41% 30.39 in 10.0 mi Calm Calm - N/A   Clear
11:33 AM 14.0 °F 8.2 °F -9.4 °F 35% 30.38 in 10.0 mi East 3.5 mph - N/A   Clear
12:13 PM 21.2 °F 14.9 °F -18.4 °F 17% 30.37 in 10.0 mi SE 4.6 mph - N/A   Clear
12:33 PM 21.2 °F 11.7 °F -18.4 °F 17% 30.36 in 10.0 mi SE 8.1 mph - N/A   Clear
12:53 PM 21.2 °F 16.4 °F -16.6 °F 18% 30.36 in 10.0 mi SE 3.5 mph - N/A   Clear
1:13 PM 21.2 °F 16.4 °F -16.6 °F 18% 30.36 in 10.0 mi East 3.5 mph - N/A   Clear
1:33 PM 21.2 °F 14.9 °F -14.8 °F 20% 30.34 in 10.0 mi SE 4.6 mph - N/A   Clear
1:53 PM 21.2 °F 14.9 °F -13.0 °F 22% 30.33 in 10.0 mi SE 4.6 mph - N/A   Clear
2:13 PM 23.0 °F 15.8 °F -14.8 °F 18% 30.33 in 10.0 mi SE 5.8 mph - N/A   Clear
2:33 PM 23.0 °F 15.8 °F -13.0 °F 20% 30.32 in 10.0 mi SE 5.8 mph - N/A   Clear
2:53 PM 24.8 °F 17.9 °F -11.2 °F 20% 30.31 in 10.0 mi SSE 5.8 mph - N/A   Clear
3:14 PM 24.8 °F 17.9 °F -9.4 °F 22% 30.31 in 10.0 mi ESE 5.8 mph - N/A   Clear
3:33 PM 24.8 °F 17.9 °F -9.4 °F 22% 30.29 in 10.0 mi ESE 5.8 mph - N/A   Clear
3:54 PM 24.8 °F 20.5 °F -9.4 °F 22% 30.29 in 10.0 mi East 3.5 mph - N/A   Clear
4:33 PM 23.0 °F - -7.6 °F 26% 30.29 in 10.0 mi Calm Calm - N/A   Clear
4:53 PM 23.0 °F - -7.6 °F 26% 30.29 in 10.0 mi Calm Calm - N/A   Clear
5:13 PM 21.2 °F - -5.8 °F 30% 30.29 in 10.0 mi Calm Calm - N/A   Clear
5:33 PM 19.4 °F - -5.8 °F 33% 30.29 in 10.0 mi Calm Calm - N/A   Clear
5:53 PM 17.6 °F - -2.2 °F 42% 30.29 in 10.0 mi Calm Calm - N/A   Clear
6:13 PM 17.6 °F - -2.2 °F 42% 30.29 in 10.0 mi Calm Calm - N/A   Clear
6:33 PM 17.6 °F - -2.2 °F 42% 30.28 in 10.0 mi Calm Calm - N/A   Clear
6:53 PM 15.8 °F - -0.4 °F 49% 30.28 in 10.0 mi Calm Calm - N/A   Clear
7:14 PM 15.8 °F - -0.4 °F 49% 30.27 in 10.0 mi Calm Calm - N/A   Clear
7:33 PM 15.8 °F - 1.4 °F 53% 30.26 in 10.0 mi Calm Calm - N/A   Clear
7:53 PM 15.8 °F - 1.4 °F 53% 30.25 in 10.0 mi Calm Calm - N/A   Clear
8:13 PM 14.0 °F - 1.4 °F 57% 30.25 in 10.0 mi Calm Calm - N/A   Clear
8:33 PM 12.2 °F - 1.4 °F 62% 30.25 in 10.0 mi Calm Calm - N/A   Clear
8:53 PM 12.2 °F - 1.4 °F 62% 30.24 in 10.0 mi Calm Calm - N/A   Clear
9:13 PM 10.4 °F - 1.4 °F 67% 30.24 in 10.0 mi Calm Calm - N/A   Clear
9:33 PM 8.6 °F - 1.4 °F 73% 30.23 in 10.0 mi Calm Calm - N/A   Clear
9:53 PM 10.4 °F - 1.4 °F 67% 30.22 in 10.0 mi Calm Calm - N/A   Clear
10:13 PM 10.4 °F - 3.2 °F 73% 30.21 in 10.0 mi Calm Calm - N/A   Clear
11:07 PM 10.4 °F - 3.2 °F 73% 30.20 in 10.0 mi Calm Calm - N/A   Clear
11:13 PM 8.6 °F - 3.2 °F 79% 30.20 in 10.0 mi Calm Calm - N/A   Clear
11:33 PM 10.4 °F - 5.0 °F 79% 30.19 in 10.0 mi Calm Calm - N/A   Clear
11:53 PM 8.6 °F - 3.2 °F 79% 30.19 in 10.0 mi Calm Calm - N/A   Scattered Clouds